#timestamp,LO_Frequency,Hit,StdDev 
1635634815.2,286047001.2,N
1635634835.0,286046998.6,N
1635634836.0,286046998.6,N
1635634855.8,286046999.2,N
1635634875.6,286046997.6,N
1635634895.5,286047000.8,N
1635634915.3,286046998.8,N
1635634935.1,286046998.1,N
1635634955.9,286046998.9,N
1635634975.7,286046997.6,N
1635634995.6,286046996.3,N
1635635015.4,286046993.6,Y
1635635035.2,286046993.8,P
1635635055.1,286046996.8,N
1635635056.0,286046996.8,N
1635635075.8,286046998.5,N
1635635095.6,286046999.4,N
1635635115.5,286046999.1,N
1635635135.3,286046999.5,N
1635635155.2,286046999.3,N
1635635175.9,286046998.3,N
1635635195.7,286047000.2,N
1635635215.6,286047001.4,N
1635635235.4,286047001.9,N
1635635255.2,286046999.8,N
1635635275.1,286047000.1,N
1635635276.0,286047000.1,N
1635635295.8,286046999.7,N
1635635315.7,286047002.8,N
1635635335.5,286046999.0,N
1635635355.3,286047000.0,N
1635635375.2,286047002.2,N
1635635395.0,286047004.4,N
1635635395.9,286047004.4,N
1635635415.8,286047005.9,N
1635635435.6,286047005.4,N
1635635455.4,286047005.1,N
1635635475.3,286047004.1,N
1635635495.1,286047005.1,N
1635635515.8,286047001.7,N
1635635535.7,286047003.9,N
1635635555.5,286047004.2,N
1635635575.4,286047001.3,N
1635635595.2,286047003.8,N
1635635615.0,286047003.4,N
1635635615.9,286047003.4,N
1635635635.8,286047003.2,N
1635635655.6,286047004.1,N
1635635675.4,286047001.6,N
1635635695.3,286047003.7,N
1635635715.1,286047004.0,N
1635635735.9,286047003.4,N
1635635755.7,286047004.4,N
1635635775.5,286047004.1,N
1635635795.4,286047003.2,N
1635635815.2,286047003.6,N
1635635835.0,286047002.1,N
1635635836.0,286047002.1,N
1635635855.8,286047000.1,N
1635635875.6,286047002.5,N
1635635895.5,286047000.3,N
1635635915.3,286047001.6,N
1635635935.1,286047004.0,N
1635635955.9,286047001.7,N
1635635975.7,286047003.1,N
1635635995.6,286047003.0,N
1635636015.4,286047003.7,N
1635636035.2,286047003.8,Y
1635636055.1,286047001.0,P
1635636056.0,286047001.0,N
1635636075.8,286047001.2,N
1635636095.6,286046998.8,N
1635636115.5,286046998.3,N
1635636135.3,286046996.7,N
1635636155.2,286046995.6,N
1635636175.9,286046995.2,N
1635636195.7,286046996.0,N
1635636215.6,286046996.3,N
1635636235.4,286046993.5,N
1635636255.2,286046995.9,N
1635636275.1,286046999.2,N
1635636276.0,286046999.2,N
1635636295.8,286046998.1,N
1635636315.7,286047001.1,N
1635636335.5,286046999.4,N
1635636355.3,286046996.6,N
1635636375.2,286046998.3,N
1635636395.0,286046996.7,N
1635636395.9,286046996.7,N
1635636415.7,286046998.2,N
1635636435.6,286046998.1,N
1635636455.4,286047000.4,N
1635636475.3,286047000.5,N
1635636495.1,286046998.5,N
1635636496.0,286046998.5,N
1635636515.8,286046996.7,N
1635636535.7,286046995.8,N
1635636555.5,286046997.3,N
1635636575.4,286046996.9,N
1635636595.2,286046997.2,N
1635636615.0,286046996.7,N
1635636615.9,286046996.7,N
1635636635.8,286046997.3,N
1635636655.6,286046996.8,N
1635636675.4,286046994.9,Y
1635636695.3,286046997.1,P
1635636715.1,286047001.1,P
1635636735.9,286046998.3,N
1635636755.7,286047000.0,N
1635636775.5,286047002.4,N
1635636795.4,286047002.7,N
1635636815.2,286046999.7,N
1635636835.0,286047001.0,N
1635636835.9,286047001.0,N
1635636855.8,286047001.8,N
1635636875.6,286047002.2,N
1635636895.5,286047001.5,N
1635636915.3,286047002.8,N
1635636935.1,286047002.8,N
1635636955.9,286047002.1,N
1635636975.7,286047001.6,N
1635636995.6,286047006.0,Y
1635637015.4,286047005.6,P
1635637035.2,286047001.7,N
1635637055.1,286047004.4,N
1635637056.0,286047004.4,N
1635637075.8,286047003.0,N
1635637095.7,286047001.8,N
1635637145.5,286047002.1,E
1635637155.4,286047002.2,N
1635637175.3,286046999.8,P
1635637195.1,286047001.0,N
1635637215.9,286047000.5,N
1635637235.7,286047002.8,Y
1635637255.5,286046998.5,P
1635637275.4,286047000.0,N
1635637295.2,286046999.8,N
1635637315.1,286047002.1,N
1635637316.0,286047002.1,N
1635637335.8,286047003.5,N
1635637355.6,286047003.1,N
1635637375.5,286047003.7,N
1635637395.3,286047001.7,N
1635637415.1,286047000.0,N
1635637435.9,286047001.0,N
1635637455.7,286046998.6,N
1635637475.6,286046996.6,N
1635637495.4,286047000.9,N
1635637515.2,286046998.3,N
1635637535.1,286047000.4,N
1635637536.0,286047000.4,N
1635637555.8,286047001.7,N
1635637575.7,286047001.5,N
1635637595.5,286047004.3,N
1635637615.3,286047003.1,N
1635637635.2,286047004.2,N
1635637655.0,286047003.1,N
1635637655.9,286047003.1,N
1635637675.8,286047005.1,N
1635637695.6,286047004.5,N
1635637715.4,286047007.5,Y
1635637765.3,286047007.4,E
1635637775.2,286047004.4,N
1635637795.1,286046997.2,P
1635637796.0,286046997.2,N
1635637815.8,286046996.5,N
1635637835.6,286047000.8,N
1635637855.5,286047000.4,N
1635637875.3,286046997.4,N
1635637895.2,286046993.4,N
1635637915.9,286046993.6,N
1635637935.7,286046993.9,N
1635637955.6,286046993.9,N
1635637975.4,286046996.2,N
1635637995.2,286046996.3,N
1635638015.1,286046997.4,N
1635638016.0,286046997.4,N
1635638035.8,286046996.7,N
1635638055.7,286046997.1,N
1635638075.5,286046999.0,N
1635638095.3,286046997.4,N
1635638115.2,286046997.3,N
1635638135.0,286046996.3,N
1635638135.9,286046996.3,N
1635638155.8,286046994.5,N
1635638175.6,286046992.2,Y
1635638195.4,286046996.1,P
1635638215.3,286046995.6,P
1635638235.1,286046994.1,P
1635638255.8,286046996.2,Y
1635638275.7,286047000.4,P
1635638295.5,286047000.8,N
1635638315.4,286046999.8,N
1635638335.2,286047000.2,N
1635638355.0,286047002.5,N
1635638355.9,286047002.5,N
1635638375.8,286047000.4,N
1635638395.6,286046999.9,N
